User: anonymous   Login
Location: Stoke Bliss
(52.2667°N, 2.5167°W)
Time: 00:37:47
(UTC+00:00)
Language:

Cosmos 1844 Rocket - Orbit

View from above orbital plane
View from above orbital plane
View from above satellite
View from above satellite

Ground track
Ground track

The orbit data is extracted from the following two-line orbital elements,

1 17974U 87041B   21335.54982149  .00000132  00000-0  88873-4 0  9998
2 17974  71.0089  78.9185 0011803  62.0700  19.7541 14.17282549787159
Epoch (UTC): 01 December 2021 13:11:44
Eccentricity: 0.0011803
inclination: 71.0089°
perigee height: 826 km
apogee height: 843 km
right ascension of ascending node: 78.9185°
argument of perigee: 62.0700°
revolutions per day: 14.17282549
mean anomaly at epoch: 19.7541°
orbit number at epoch: 78715

The dashed part of the orbit path shows where the satellite is in the earth's shadow,  

DLR